This is the latest recevied weather packets stored in our database for station/object KD8TSA. If no packets are shown the sender has not sent any weather packets the latest 10 day(s).
| Time | Temp. | Humidity | Pressure | Rain* | Wind** | Luminosity | Snow |
|---|---|---|---|---|---|---|---|
| 1777588762 | 12.78° C | 54% | 1014.4 hPa | 0 mm | - | 209 W/m² | - |
| 1777588458 | 12.22° C | 57% | 1014.6 hPa | 0 mm | - | 199 W/m² | - |
| 1777588153 | 12.78° C | 56% | 1014.4 hPa | 0 mm | - | 62 W/m² | - |
| 1777587850 | 13.33° C | 55% | 1014.5 hPa | 0 mm | - | 72 W/m² | - |
| 1777587549 | 13.33° C | 53% | 1014.4 hPa | 0 mm | - | 271 W/m² | - |
| 1777587245 | 13.89° C | 52% | 1014.5 hPa | 0 mm | - | 89 W/m² | - |
| 1777586940 | 13.89° C | 54% | 1014.4 hPa | 0 mm | - | 333 W/m² | - |
| 1777586636 | 13.89° C | 53% | 1014.7 hPa | 0 mm | - | 327 W/m² | - |
| 1777586332 | 14.44° C | 54% | 1014.5 hPa | 0 mm | - | 301 W/m² | - |
| 1777586031 | 14.44° C | 55% | 1014.4 hPa | 0 mm | - | 379 W/m² | - |
| 1777585724 | 13.89° C | 54% | 1014.6 hPa | 0 mm | - | 337 W/m² | - |
| 1777585424 | 13.89° C | 52% | 1014.5 hPa | 0 mm | - | 278 W/m² | - |
| 1777585120 | 13.89° C | 58% | 1014.4 hPa | 0 mm | - | 422 W/m² | - |
| 1777584816 | 14.44° C | 54% | 1014.4 hPa | 0 mm | - | 148 W/m² | - |
| 1777584514 | 14.44° C | 55% | 1014.3 hPa | 0 mm | - | 467 W/m² | - |
| 1777584210 | 14.44° C | 56% | 1014.4 hPa | 0 mm | - | 472 W/m² | - |
| 1777583909 | 14.44° C | 53% | 1014.4 hPa | 0 mm | - | 470 W/m² | - |
| 1777583606 | 13.89° C | 57% | 1014.3 hPa | 0 mm | - | 468 W/m² | - |
| 1777583304 | 13.89° C | 57% | 1014.5 hPa | 0 mm | - | 479 W/m² | - |
| 1777582999 | 13.89° C | 58% | 1014.6 hPa | 0 mm | - | 262 W/m² | - |
| 1777582697 | 14.44° C | 56% | 1014.5 hPa | 0 mm | - | 318 W/m² | - |
| 1777582392 | 13.89° C | 54% | 1014.7 hPa | 0 mm | - | 524 W/m² | - |
| 1777582091 | 13.89° C | 56% | 1014.6 hPa | 0 mm | - | 542 W/m² | - |
| 1777581791 | 13.33° C | 59% | 1014.5 hPa | 0 mm | - | 547 W/m² | - |
| 1777581490 | 13.33° C | 60% | 1014.5 hPa | 0 mm | - | 572 W/m² | - |
* Rain latest hour (hover to see other rain measurements)
** Current wind speed in m/s (hover to see current wind gust speed)